Phoenix, AZ

2:40 AM MST on May 29, 2017 (GMT -0700)
Phoenix Sky Harbor International

Weather History for KPHX - February, 2012

Change the Weather History Date:

Tuesday, February 7, 2012

  Actual Average Record
Temperature  
Mean Temperature 62 °F 59 °F  
Max Temperature 74 °F 70 °F 89 °F (1963)
Min Temperature 50 °F 48 °F 24 °F (1899)
Degree Days  
Heating Degree Days 3 7  
Month to date heating degree days 45 49  
Since 1 July heating degree days 664 719  
Cooling Degree Days 0 0  
Month to date cooling degree days 0 0  
Year to date cooling degree days 3 2  
Growing Degree Days 12 (Base 50)    
Moisture  
Dew Point 23 °F    
Average Humidity 28    
Maximum Humidity 41    
Minimum Humidity 14    
Precipitation  
Precipitation 0.00 in 0.03 in 0.74 in (1935)
Month to date precipitation 0.00 0.20  
Year to date precipitation T 1.11  
Snow  
Snow 0.00 in - - ()
Month to date snowfall 0.0  
Year to date snowfall 0.0  
Since 1 July snowfall 0.0  
Snow Depth 0.00 in    
Sea Level Pressure  
Sea Level Pressure 29.95 in    
Wind  
Wind Speed 7 mph (ENE)    
Max Wind Speed 18 mph    
Max Gust Speed 22 mph    
Visibility 10 miles    
Events      
T = Trace of Precipitation, MM = Missing Value Source: NWS Daily Summary

Daily Weather History Graph

Daily Weather History Graph

Search for Another Location

Airport or City:

Trip Planner

Search our weather history database for the weather conditions in past years. The results will help you decide how hot, cold, wet, or windy it might be!

Date:

Astronomy

Feb. 07, 2012 Rise Set
Actual Time 7:19 AM MST 6:04 PM MST
Civil Twilight 6:54 AM MST 6:30 PM MST
Nautical Twilight 6:24 AM MST 7:00 PM MST
Astronomical Twilight 5:55 AM MST 7:29 PM MST
Moon 6:16 PM MST (2/7) 6:52 AM MST (2/7)
Length of Visible Light 11h 36m
Length of Day
10h 45m
Full, 100% of the Moon is Illuminated
Feb 7
Full
Feb 7
Full
Feb 14
Last Quarter
Feb 21
New
Feb 29
First Quarter

Hourly Weather History & Observations

Time (MST) Temp. Dew Point Humidity Pressure Visibility Wind Dir Wind Speed Gust Speed Precip Events Conditions
12:51 AM 53.1 °F 27.0 °F 37% 29.99 in 10.0 mi Calm Calm - N/A   Mostly Cloudy
1:51 AM 53.1 °F 27.0 °F 37% 29.99 in 10.0 mi Calm Calm - N/A   Mostly Cloudy
2:51 AM 54.0 °F 28.0 °F 37% 29.98 in 10.0 mi ENE 5.8 mph - N/A   Mostly Cloudy
3:51 AM 54.0 °F 26.1 °F 34% 29.99 in 10.0 mi Calm Calm - N/A   Mostly Cloudy
4:51 AM 51.1 °F 28.9 °F 43% 29.99 in 10.0 mi Calm Calm - N/A   Mostly Cloudy
5:51 AM 55.9 °F 21.0 °F 26% 29.99 in 10.0 mi ENE 5.8 mph - N/A   Overcast
6:51 AM 55.9 °F 19.0 °F 24% 29.99 in 10.0 mi East 8.1 mph - N/A   Mostly Cloudy
7:51 AM 57.0 °F 19.0 °F 23% 30.01 in 10.0 mi ENE 9.2 mph - N/A   Mostly Cloudy
8:51 AM 57.9 °F 19.0 °F 22% 30.02 in 10.0 mi East 9.2 mph - N/A   Mostly Cloudy
9:51 AM 62.1 °F 19.0 °F 19% 30.01 in 10.0 mi ENE 13.8 mph - N/A   Mostly Cloudy
10:51 AM 64.0 °F 19.0 °F 18% 30.01 in 10.0 mi ENE 15.0 mph - N/A   Mostly Cloudy
11:51 AM 66.0 °F 19.9 °F 17% 30.00 in 10.0 mi East 12.7 mph - N/A   Mostly Cloudy
12:51 PM 70.0 °F 19.9 °F 15% 29.96 in 10.0 mi ENE 12.7 mph - N/A   Mostly Cloudy
1:51 PM 72.0 °F 21.0 °F 15% 29.92 in 10.0 mi East 9.2 mph - N/A   Mostly Cloudy
2:51 PM 73.0 °F 21.9 °F 15% 29.89 in 10.0 mi East 4.6 mph - N/A   Mostly Cloudy
3:51 PM 73.0 °F 23.0 °F 15% 29.88 in 10.0 mi NE 8.1 mph - N/A   Mostly Cloudy
4:51 PM 73.0 °F 23.0 °F 15% 29.87 in 10.0 mi NE 9.2 mph - N/A   Mostly Cloudy
5:51 PM 72.0 °F 24.1 °F 17% 29.86 in 10.0 mi ENE 9.2 mph - N/A   Overcast
6:51 PM 70.0 °F 24.1 °F 18% 29.87 in 10.0 mi ENE 8.1 mph - N/A   Mostly Cloudy
7:51 PM 69.1 °F 24.1 °F 18% 29.88 in 10.0 mi ENE 8.1 mph - N/A   Mostly Cloudy
8:51 PM 66.9 °F 24.1 °F 20% 29.89 in 10.0 mi Calm Calm - N/A   Overcast
9:51 PM 64.9 °F 26.1 °F 23% 29.89 in 10.0 mi SW 3.5 mph - N/A   Overcast
10:51 PM 63.0 °F 27.0 °F 26% 29.91 in 10.0 mi SW 3.5 mph - N/A   Overcast
11:51 PM 64.0 °F 26.1 °F 24% 29.92 in 10.0 mi WNW 6.9 mph - N/A   Overcast